TimeCST,TemperatureF,Dew PointF,Humidity,Sea Level PressureIn,VisibilityMPH,Wind Direction,Wind SpeedMPH,Gust SpeedMPH,PrecipitationIn,Events,Conditions,WindDirDegrees,DateUTC
12:40 AM,54.0,51.1,90,30.19,9.0,ENE,6.9,-,N/A,,Scattered Clouds,70,2013-11-21 06:40:00
12:56 AM,54.0,51.1,90,30.15,9.0,ENE,6.9,-,N/A,,Clear,70,2013-11-21 06:56:00
1:56 AM,53.1,51.1,93,30.16,8.0,ENE,5.8,-,N/A,,Mostly Cloudy,70,2013-11-21 07:56:00
2:06 AM,53.1,51.1,93,30.20,8.0,ENE,5.8,-,N/A,,Scattered Clouds,70,2013-11-21 08:06:00
2:32 AM,54.0,51.1,90,30.20,8.0,East,4.6,-,N/A,,Mostly Cloudy,80,2013-11-21 08:32:00
2:56 AM,54.0,51.1,90,30.17,8.0,ENE,4.6,-,N/A,,Overcast,60,2013-11-21 08:56:00
3:56 AM,55.0,51.1,86,30.17,8.0,East,5.8,-,N/A,,Overcast,80,2013-11-21 09:56:00
4:56 AM,55.0,51.1,86,30.17,9.0,ENE,5.8,-,N/A,,Overcast,70,2013-11-21 10:56:00
5:56 AM,55.9,52.0,87,30.18,9.0,ENE,5.8,-,N/A,,Overcast,70,2013-11-21 11:56:00
6:56 AM,55.9,52.0,87,30.20,9.0,ENE,6.9,-,N/A,,Overcast,60,2013-11-21 12:56:00
7:56 AM,57.0,52.0,83,30.21,9.0,East,8.1,-,N/A,,Overcast,80,2013-11-21 13:56:00
8:56 AM,57.9,54.0,87,30.22,7.0,East,12.7,-,N/A,,Overcast,80,2013-11-21 14:56:00
9:56 AM,61.0,55.0,81,30.22,8.0,East,11.5,-,N/A,,Overcast,80,2013-11-21 15:56:00
10:56 AM,63.0,57.0,81,30.21,9.0,East,6.9,-,N/A,,Overcast,90,2013-11-21 16:56:00
11:56 AM,64.0,57.9,80,30.19,9.0,East,5.8,-,N/A,,Overcast,80,2013-11-21 17:56:00
12:56 PM,66.0,60.1,81,30.17,9.0,East,8.1,-,N/A,,Overcast,80,2013-11-21 18:56:00
1:56 PM,66.0,61.0,84,30.16,10.0,East,8.1,-,N/A,,Overcast,100,2013-11-21 19:56:00
2:56 PM,64.9,61.0,87,30.16,8.0,ENE,5.8,-,N/A,,Overcast,60,2013-11-21 20:56:00
3:44 PM,64.0,61.0,90,30.20,5.0,East,4.6,-,N/A,,Overcast,80,2013-11-21 21:44:00
3:56 PM,64.0,61.0,90,30.16,6.0,Calm,Calm,-,N/A,,Overcast,0,2013-11-21 21:56:00
4:56 PM,64.0,62.1,93,30.16,5.0,Calm,Calm,-,N/A,,Overcast,0,2013-11-21 22:56:00
5:56 PM,62.1,61.0,96,30.17,5.0,North,3.5,-,N/A,,Mostly Cloudy,360,2013-11-21 23:56:00
6:56 PM,62.1,61.0,96,30.19,6.0,North,4.6,-,N/A,,Mostly Cloudy,10,2013-11-22 00:56:00
7:56 PM,63.0,61.0,93,30.19,8.0,NE,5.8,-,N/A,,Mostly Cloudy,40,2013-11-22 01:56:00
8:56 PM,63.0,61.0,93,30.20,9.0,ENE,6.9,-,N/A,,Mostly Cloudy,60,2013-11-22 02:56:00
9:56 PM,64.0,62.1,93,30.20,10.0,East,6.9,-,N/A,,Mostly Cloudy,90,2013-11-22 03:56:00
10:56 PM,64.0,62.1,93,30.20,10.0,East,5.8,-,N/A,,Mostly Cloudy,100,2013-11-22 04:56:00
11:56 PM,64.9,62.1,90,30.19,10.0,East,6.9,-,N/A,,Overcast,80,2013-11-22 05:56:00